Location: Unspecified
(37.4490°N, 0.0000°E)
Time: 00:44:56
(UTC+00:00)

NOAA 19 - Visible Passes

Search period start: 04 April 2026 00:00
Search period end: 14 April 2026 00:00
Orbit: 838 x 857 km, 99.0° (Epoch: 29 March)

Date Brightness Start Highest point End Pass type
(mag) Time Alt. Az. Time Alt. Az. Time Alt. Az.
4 Apr 6.6 20:45:56 24° NE 20:45:56 24° NE 20:49:02 10° N visible
4 Apr 7.4 22:27:52 21° NW 22:27:52 21° NW 22:29:57 10° NNW visible
5 Apr 6.8 20:32:55 20° NE 20:32:55 20° NE 20:35:55 10° NNE visible
5 Apr 7.1 22:14:51 26° NW 22:14:51 26° NW 22:17:24 10° NNW visible
6 Apr 7.0 20:19:54 16° NE 20:19:54 16° NE 20:22:38 10° NNE visible
6 Apr 6.8 22:01:50 32° NNW 22:01:50 32° NNW 22:04:46 10° NNW visible
7 Apr 7.2 20:06:53 13° ENE 20:06:53 13° ENE 20:09:01 10° NE visible
7 Apr 6.5 21:48:49 37° NNW 21:48:49 37° NNW 21:52:04 10° NNW visible
8 Apr 6.2 21:35:48 40° N 21:35:48 40° N 21:39:18 10° N visible
9 Apr 6.1 21:22:48 40° NNE 21:22:48 40° NNE 21:26:29 10° N visible
9 Apr 7.9 23:04:44 12° WNW 23:04:44 12° WNW 23:05:28 10° NW visible
10 Apr 6.2 21:09:47 37° NNE 21:09:47 37° NNE 21:13:35 10° N visible
10 Apr 7.6 22:51:42 16° WNW 22:51:42 16° WNW 22:53:22 10° NW visible
11 Apr 6.3 20:56:46 31° NE 20:56:46 31° NE 21:00:38 10° N visible
11 Apr 7.3 22:38:42 21° WNW 22:38:42 21° WNW 22:41:02 10° NW visible
12 Apr 6.5 20:43:45 26° NE 20:43:45 26° NE 20:47:36 10° N visible
12 Apr 7.0 22:25:41 27° NW 22:25:41 27° NW 22:28:35 10° NNW visible
13 Apr 6.7 20:30:45 21° ENE 20:30:45 21° ENE 20:34:26 10° NNE visible
13 Apr 6.6 22:12:41 34° NW 22:12:41 34° NW 22:16:01 10° NNW visible
